Wetbulb
73.87 73.99 74.08 73.56 72.78 65.47 66.56 71.56 72.24 72.12 72.72 72.93 72.81 71.87 72.01 71.68 71.07 70.84 69.89 69.63 69.03 69.08 69.57 69.66 69.07 68.65 68.10 67.84 66.89 66.37 65.65 65.90 63.64 65.40 68.01 68.61 67.83 68.34 68.88 69.16 68.91 66.51 66.38
74.18 71.14 69.70 69.40 65.37 64.48 65.25 65.43 69.80 71.85 71.72 71.90 72.35 71.65 71.71 71.18 71.12 70.39 69.68 70.05 69.10 68.47 68.33 68.22 68.76 70.33 68.41 67.82 67.64 67.37 67.53 67.21 65.73 64.59 66.79 67.55 67.42 67.60 67.24 67.26 68.03 68.09 65.68
69.06 67.64 67.35 66.15 66.36 64.96 66.24 63.87 64.09 65.72 70.41 71.17 71.24 70.62 71.69 71.71 70.97 70.57 70.15 69.21 68.96 68.84 68.90 67.80 67.63 68.37 67.56 67.80 67.76 67.78 68.25 68.34 68.34 66.81 65.79 66.88 66.29 65.65 65.74 66.31 66.17 65.36 65.37
67.55 66.66 66.29 66.20 66.20 66.45 65.78 65.01 64.33 64.52 68.50 71.03 71.53 71.70 71.57 71.14 71.73 70.66 70.39 69.12 69.17 69.13 69.00 68.78 68.33 67.75 66.97 67.20 67.08 66.93 66.86 66.47 65.98 65.43 64.88 65.04 65.05 65.24 65.19 63.05 62.52 64.29 63.95
66.68 65.66 64.93 65.68 65.64 65.96 64.56 64.94 64.47 64.21 68.10 71.33 71.70 71.58 71.66 71.31 71.84 70.64 70.15 69.68 68.89 68.78 69.14 69.17 68.64 68.96 68.53 68.04 67.53 66.41 66.52 65.84 65.48 64.84 64.05 63.60 63.55 64.51 61.73 62.03 61.45 62.66 63.52
66.27 65.71 65.48 64.58 64.25 64.59 64.43 64.02 64.86 69.03 70.45 70.48 70.51 71.14 70.87 72.32 67.67 66.93 69.92 69.71 69.73 69.22 68.02 68.60 68.68 68.77 68.55 67.23 67.74 69.15 68.09 65.98 64.99 64.64 63.38 63.06 63.52 63.13 63.26 62.21 62.29 60.71 59.24
66.68 67.40 65.21 64.61 63.53 63.01 65.84 66.30 66.68 68.05 68.89 68.81 69.95 70.28 69.86 70.37 65.63 63.14 66.67 70.23 69.81 69.47 69.40 69.26 68.81 70.44 67.72 67.27 64.64 66.50 66.45 67.03 67.03 65.85 63.54 63.45 62.90 64.59 65.06 63.11 61.38 60.95 60.36
66.03 66.39 66.01 65.58 65.23 65.37 65.10 65.83 65.65 66.28 68.00 68.51 67.96 68.48 68.76 70.42 65.17 62.08 62.53 68.90 69.81 69.64 70.01 69.73 68.67 67.38 67.03 67.44 66.27 64.51 64.28 64.09 64.45 65.68 65.12 65.12 65.90 65.74 66.26 64.89 62.43 62.19 62.91
64.16 65.46 66.75 66.70 66.06 65.85 64.36 65.08 66.03 67.06 66.66 67.53 68.56 68.82 68.07 68.30 63.14 59.55 61.43 65.59 68.07 68.32 68.81 69.70 69.52 68.17 65.28 63.26 67.53 65.27 64.49 64.69 62.69 62.18 62.33 62.87 62.80 63.71 64.60 63.84 62.02 61.09 59.62
64.19 64.97 65.10 65.74 66.23 65.39 65.36 65.31 66.30 66.41 66.64 67.85 67.62 66.70 66.19 68.79 64.61 56.82 59.44 66.40 67.49 67.51 68.07 68.76 63.91 67.51 62.09 59.69 66.33 66.57 65.15 65.42 64.49 61.44 61.18 61.25 63.50 63.41 62.18 64.79 62.70 60.99 59.49
62.94 63.35 64.22 65.06 64.38 65.67 65.29 66.66 66.10 66.55 66.61 66.30 66.79 67.49 68.92 67.87 67.71 57.15 57.15 66.88 68.25 67.69 67.71 67.42 68.88 59.95 57.62 55.75 59.09 66.81 66.01 66.25 64.95 63.71 62.98 62.86 62.85 64.41 64.67 63.76 63.39 62.38 60.44
62.45 62.17 61.66 61.58 62.68 64.70 63.85 64.92 64.82 66.08 64.58 64.67 65.54 66.04 67.08 67.73 62.63 57.15 55.15 55.70 62.85 67.44 67.49 67.01 63.40 55.19 52.34 51.66 54.14 59.32 58.12 61.44 65.95 65.43 64.59 64.14 63.33 63.89 64.82 65.50 63.37 63.19 63.08
59.69 59.85 61.16 61.49 61.13 62.56 62.99 63.29 63.52 63.47 63.84 63.80 62.73 62.86 64.59 65.48 62.78 55.30 52.61 52.25 54.05 58.68 64.73 63.06 56.50 54.43 53.55 55.08 53.04 54.34 54.54 62.83 64.53 64.26 64.43 64.63 64.80 64.90 65.29 64.96 65.32 63.79 63.29
58.32 58.31 59.23 59.38 60.64 59.99 61.84 61.96 59.80 59.61 60.18 61.06 60.95 60.28 62.16 62.79 60.05 58.55 58.22 58.87 57.33 59.54 60.06 62.58 61.99 59.77 59.22 60.88 60.85 57.04 60.47 64.38 65.19 64.91 64.84 65.38 64.96 63.85 64.51 65.06 64.64 64.93 63.78
57.70 57.65 56.81 56.22 56.17 60.17 61.74 60.71 60.83 60.77 60.02 60.41 59.39 59.18 58.57 58.65 56.97 50.85 50.94 55.01 54.72 52.94 49.71 58.96 60.54 61.35 61.22 59.67 59.65 61.15 61.60 62.98 64.75 64.91 64.60 63.74 63.42 63.68 63.61 65.70 64.28 63.98 61.89
57.08 56.63 56.81 55.65 54.77 55.14 56.33 60.67 57.07 54.52 50.60 49.86 47.18 53.46 57.20 51.93 49.66 43.73 42.26 42.45 42.79 43.65 51.39 55.72 59.27 61.60 61.98 62.10 62.49 61.28 62.11 62.00 63.81 64.92 64.24 63.73 62.87 63.55 63.34 64.12 63.87 63.41 62.18
56.67 56.48 56.50 56.08 56.19 55.01 54.35 56.17 58.07 58.72 50.12 47.90 45.00 44.82 44.46 47.67 43.73 41.74 41.18 40.96 40.78 42.08 47.20 54.32 57.55 59.59 61.19 62.05 62.66 62.72 62.91 63.86 64.00 64.33 63.26 63.35 63.30 63.39 61.95 62.12 62.13 60.96 59.64
56.42 55.14 55.44 55.68 55.59 54.16 53.84 55.07 55.90 56.94 57.05 57.62 47.27 48.64 44.28 42.46 41.19 40.63 40.45 40.73 48.57 44.39 49.18 54.99 57.78 59.28 60.52 60.78 61.94 62.80 63.63 63.41 62.60 63.01 62.52 62.80 63.14 62.61 61.80 61.29 61.09 59.99 59.51
56.45 55.85 56.36 56.08 55.57 55.21 54.65 54.15 54.48 56.99 57.52 57.50 55.50 47.76 48.28 42.99 42.28 44.46 40.78 50.25 52.85 57.11 56.62 55.82 58.23 59.29 60.25 61.99 63.00 63.33 63.15 63.21 63.03 62.19 61.97 61.86 61.76 61.40 60.57 60.58 59.81 56.14 57.03
55.10 56.15 56.05 54.55 55.60 57.24 55.97 56.34 57.13 58.38 57.36 57.39 56.86 55.07 54.65 53.60 55.81 55.73 56.66 56.85 56.95 57.27 58.33 59.05 60.42 60.78 61.70 62.25 62.63 62.35 61.73 60.71 62.21 62.01 61.16 60.58 60.24 60.41 59.33 59.00 59.00 58.28 58.35
53.70 54.87 56.84 55.42 57.08 58.43 57.91 58.28 58.95 57.97 57.35 56.90 54.19 52.74 46.18 53.76 55.61 56.62 56.48 56.60 56.42 56.24 56.52 57.19 58.87 60.58 60.44 60.40 61.53 60.79 60.84 61.18 61.78 61.47 60.72 60.56 60.17 59.15 58.93 58.59 58.15 57.97 57.86
53.42 53.82 54.48 54.44 55.17 55.45 55.86 57.01 58.32 58.40 57.58 56.24 54.15 53.19 45.53 53.56 54.74 54.53 55.16 55.72 56.42 57.51 57.69 57.53 57.35 57.55 57.79 57.97 59.76 60.70 60.46 59.96 59.96 59.86 59.51 59.03 58.71 58.35 58.07 57.57 56.94 57.13 56.76
53.27 53.12 54.17 53.64 54.45 54.33 55.27 56.29 55.50 56.38 56.82 56.67 55.51 53.67 53.64 54.95 54.07 53.91 54.05 55.10 56.10 56.28 57.29 57.13 57.43 57.39 57.97 58.17 58.51 58.21 57.53 57.33 57.85 58.57 57.93 57.67 57.25 56.89 57.13 56.26 56.10 55.49 54.89
51.55 51.65 52.27 52.29 53.81 53.05 53.33 54.19 55.35 53.44 55.19 56.99 55.96 53.07 54.42 54.11 53.48 53.55 54.10 55.24 56.02 55.50 54.78 55.92 56.89 56.66 56.70 57.25 57.75 57.91 57.99 58.05 57.99 57.73 57.55 56.74 56.04 54.54 55.98 55.79 55.69 54.70 51.32
49.95 51.92 53.96 53.04 52.84 51.75 51.40 55.22 55.47 55.47 55.37 55.55 56.56 56.01 55.09 54.40 52.81 52.25 53.64 54.39 56.28 55.15 55.03 53.51 54.98 55.78 56.34 56.78 55.86 54.86 46.81 43.01 54.41 49.35 56.14 55.76 55.20 54.71 54.88 54.27 53.54 50.45 46.59
50.16 51.08 51.85 54.87 53.25 51.35 51.30 54.42 55.74 55.85 55.67 55.59 55.43 55.77 53.99 53.86 53.65 52.36 53.21 53.84 52.27 51.96 53.69 53.16 53.99 54.55 55.84 52.38 49.72 41.45 37.87 38.36 48.41 42.23 53.21 52.86 51.84 50.23 49.01 49.08 49.22 48.19 46.66
MSLP
1001.58 1001.93 1002.32 1003.70 1005.30 1006.75 1007.64 1007.64 1007.18 1007.58 1007.48 1007.92 1008.13 1009.02 1009.19 1009.64 1010.25 1010.62 1011.24 1011.41 1011.74 1012.18 1011.90 1012.35 1012.43 1012.28 1012.60 1013.10 1013.53 1013.88 1014.13 1014.20 1014.32 1014.04 1013.59 1013.37 1013.54 1013.82 1014.05 1014.26 1014.54 1014.78 1014.93
1001.71 1003.15 1004.22 1004.43 1005.93 1007.23 1008.08 1007.46 1007.40 1006.92 1008.12 1007.35 1007.88 1008.69 1008.96 1009.06 1009.74 1010.09 1010.55 1010.71 1010.98 1011.83 1011.50 1011.80 1012.01 1011.78 1012.09 1012.31 1012.95 1013.33 1013.59 1013.79 1014.12 1013.91 1013.69 1013.59 1013.77 1013.97 1014.29 1014.59 1014.71 1014.79 1015.05
1001.85 1002.61 1004.85 1005.30 1006.00 1007.08 1007.37 1005.98 1004.14 1008.32 1008.90 1006.95 1007.43 1008.13 1008.19 1008.45 1009.10 1009.64 1010.00 1010.14 1010.48 1010.76 1011.17 1011.11 1011.54 1011.63 1011.68 1011.91 1012.11 1012.58 1012.76 1013.02 1013.31 1013.58 1013.58 1013.52 1013.73 1014.06 1014.60 1014.88 1014.98 1015.15 1015.32
1002.44 1001.81 1001.92 1003.33 1004.64 1005.46 1006.52 1006.06 1007.02 1007.66 1007.90 1006.10 1007.14 1007.59 1007.23 1007.53 1008.40 1008.81 1009.57 1009.66 1009.81 1009.87 1010.18 1010.08 1010.54 1011.01 1011.11 1011.42 1011.63 1011.79 1011.94 1012.30 1012.83 1013.18 1013.25 1013.41 1013.64 1014.16 1014.52 1014.96 1015.28 1015.33 1015.54
1003.24 1003.68 1004.03 1005.10 1004.98 1004.36 1004.28 1004.59 1004.42 1004.78 1006.16 1006.53 1006.75 1007.19 1006.76 1007.11 1007.75 1008.08 1008.93 1009.19 1009.15 1009.35 1009.70 1009.72 1009.60 1009.88 1010.25 1010.37 1010.60 1011.10 1011.42 1011.68 1012.20 1012.76 1013.05 1013.24 1013.52 1013.94 1014.27 1014.61 1015.04 1015.32 1015.50
1003.54 1004.26 1005.01 1005.15 1005.55 1005.81 1005.28 1005.07 1005.92 1006.29 1006.33 1006.56 1006.51 1006.65 1006.60 1006.92 1007.14 1007.19 1008.13 1008.39 1008.79 1008.82 1009.47 1009.53 1009.35 1009.21 1009.40 1009.57 1009.53 1009.71 1010.35 1010.97 1011.47 1011.96 1012.34 1012.49 1012.64 1012.90 1013.38 1013.90 1014.36 1014.86 1015.25
1004.00 1003.95 1004.60 1004.90 1005.04 1004.81 1005.14 1005.44 1005.99 1006.41 1006.34 1006.35 1006.22 1006.51 1006.67 1006.76 1006.86 1006.90 1007.69 1007.82 1008.10 1008.23 1008.62 1008.78 1008.88 1008.77 1008.89 1008.98 1009.13 1009.43 1009.67 1009.99 1010.24 1010.83 1011.47 1011.64 1011.80 1011.95 1012.38 1013.21 1013.62 1013.96 1014.33
1004.22 1004.22 1004.41 1004.61 1004.52 1004.62 1004.93 1005.33 1005.78 1006.27 1006.14 1005.91 1006.34 1006.43 1006.40 1006.26 1006.26 1006.54 1007.13 1007.50 1007.50 1007.49 1007.78 1008.10 1008.22 1008.37 1008.47 1008.68 1008.76 1009.24 1009.45 1009.64 1009.97 1010.26 1010.48 1010.66 1010.79 1010.92 1011.30 1011.74 1012.56 1013.34 1013.83
1005.16 1005.09 1004.87 1004.77 1004.82 1004.85 1005.19 1005.43 1005.66 1006.02 1006.01 1005.74 1006.15 1006.03 1006.10 1006.46 1006.08 1006.23 1006.50 1006.94 1007.46 1007.30 1007.25 1007.43 1007.65 1007.90 1007.84 1008.13 1008.37 1008.72 1008.98 1009.22 1009.29 1009.51 1009.64 1009.76 1009.96 1010.25 1010.72 1011.64 1012.50 1013.17 1013.62
1005.83 1005.73 1005.69 1005.58 1005.30 1005.43 1005.55 1005.70 1005.72 1005.82 1006.08 1005.73 1005.84 1005.98 1005.98 1005.99 1005.74 1005.35 1006.26 1007.10 1006.97 1007.50 1007.34 1006.92 1007.01 1007.23 1007.43 1007.48 1007.81 1008.19 1008.61 1008.66 1009.21 1009.77 1010.01 1009.97 1009.88 1010.24 1010.41 1010.78 1011.75 1012.50 1013.01
1006.60 1006.46 1006.16 1005.99 1005.86 1005.67 1005.30 1005.40 1005.49 1005.72 1006.12 1006.19 1006.02 1005.64 1005.37 1005.71 1005.94 1006.46 1006.84 1006.49 1006.44 1007.05 1007.19 1006.72 1006.43 1006.47 1006.74 1006.82 1007.09 1007.43 1007.53 1007.77 1008.30 1008.74 1009.23 1009.52 1009.88 1010.19 1010.49 1010.68 1010.96 1011.34 1011.94
1006.68 1006.67 1006.58 1006.53 1006.30 1006.10 1005.88 1005.70 1005.76 1005.76 1005.79 1005.77 1005.91 1005.81 1006.03 1005.66 1005.62 1005.88 1005.83 1006.13 1005.92 1006.32 1006.33 1006.30 1006.37 1006.34 1006.35 1006.56 1006.95 1006.55 1006.46 1006.83 1007.62 1008.29 1008.64 1008.97 1009.32 1009.74 1009.99 1010.23 1010.42 1010.58 1010.76
1006.92 1006.80 1006.75 1006.59 1006.48 1006.22 1006.10 1005.80 1005.94 1005.80 1005.63 1005.58 1005.91 1005.78 1005.70 1005.68 1006.08 1005.91 1005.89 1006.53 1006.64 1006.87 1006.03 1006.00 1006.08 1006.31 1006.42 1006.26 1006.39 1006.44 1006.99 1006.79 1006.80 1007.50 1007.87 1008.06 1008.13 1008.49 1009.12 1009.65 1009.87 1010.07 1010.27
1006.96 1006.71 1006.45 1006.23 1006.38 1006.36 1006.00 1005.76 1005.55 1005.51 1005.54 1005.74 1006.06 1006.23 1006.08 1006.06 1006.40 1006.51 1006.47 1006.34 1006.14 1005.97 1006.22 1005.89 1005.38 1005.47 1005.74 1005.70 1005.87 1006.01 1006.37 1006.15 1006.09 1006.14 1006.58 1006.65 1007.05 1007.74 1008.37 1008.86 1009.58 1009.79 1010.29
1007.12 1006.78 1006.59 1006.21 1006.19 1006.02 1005.95 1005.64 1005.50 1005.55 1005.61 1005.70 1006.10 1006.35 1006.35 1006.59 1006.63 1006.93 1006.83 1006.82 1006.87 1006.72 1006.87 1006.17 1005.70 1005.38 1005.28 1005.24 1005.34 1005.36 1005.30 1005.42 1005.68 1005.72 1005.75 1006.14 1006.46 1006.95 1007.53 1008.01 1008.51 1009.20 1009.65
1007.59 1007.28 1006.91 1006.46 1006.14 1005.87 1005.67 1005.23 1005.19 1005.15 1005.46 1005.62 1005.91 1006.19 1006.37 1006.38 1006.47 1006.57 1006.81 1007.08 1006.99 1006.93 1006.98 1006.46 1005.47 1004.87 1004.62 1004.54 1004.45 1004.53 1004.62 1004.70 1004.62 1004.81 1005.01 1005.08 1005.56 1006.08 1006.74 1007.25 1007.74 1008.23 1008.86
1007.66 1007.23 1006.87 1006.55 1006.38 1005.80 1005.39 1005.47 1005.28 1005.10 1005.17 1005.24 1005.70 1006.10 1006.42 1006.43 1006.54 1006.31 1006.43 1006.61 1006.29 1006.58 1006.40 1005.59 1004.98 1004.34 1003.91 1003.96 1003.81 1003.65 1003.74 1003.67 1003.72 1003.90 1004.11 1004.26 1004.59 1005.33 1005.89 1006.47 1007.30 1007.88 1008.37
1007.03 1006.81 1006.39 1006.07 1005.80 1005.47 1005.38 1005.42 1005.41 1005.33 1005.46 1005.60 1005.68 1006.01 1006.22 1006.44 1006.27 1006.34 1006.34 1006.30 1005.93 1005.72 1005.32 1004.71 1003.82 1003.69 1003.37 1003.19 1003.13 1002.95 1002.88 1002.97 1002.94 1003.31 1003.51 1003.63 1003.88 1004.48 1005.24 1005.99 1006.74 1007.50 1008.07
1007.04 1006.73 1006.27 1005.84 1005.53 1005.18 1005.11 1005.15 1004.97 1005.02 1005.41 1005.67 1006.34 1006.55 1006.20 1006.13 1005.93 1005.94 1006.03 1005.97 1005.43 1004.71 1003.74 1003.53 1003.17 1003.03 1002.85 1002.54 1002.21 1002.04 1002.11 1002.31 1002.35 1002.42 1002.79 1003.00 1003.17 1003.96 1004.63 1005.14 1006.06 1006.76 1007.54
1006.90 1006.63 1006.16 1005.57 1005.33 1005.13 1004.81 1004.73 1004.25 1004.59 1005.08 1005.58 1005.75 1005.97 1005.71 1005.83 1005.71 1005.71 1005.33 1005.15 1004.76 1004.08 1003.43 1002.79 1002.42 1001.83 1001.91 1001.63 1001.47 1001.49 1001.53 1001.71 1001.83 1001.80 1002.36 1002.41 1002.61 1003.25 1004.11 1004.83 1005.77 1006.32 1007.35
1007.03 1006.65 1006.23 1005.80 1005.56 1005.34 1005.13 1005.09 1005.00 1005.09 1005.17 1005.46 1005.66 1005.92 1006.05 1006.04 1005.76 1005.16 1005.13 1004.68 1004.46 1003.73 1002.95 1002.74 1002.41 1001.43 1001.02 1000.99 1000.78 1000.87 1000.87 1001.14 1001.45 1001.51 1001.73 1002.38 1002.68 1003.38 1003.88 1005.03 1005.62 1006.50 1007.13
1006.99 1006.71 1006.23 1005.99 1005.67 1005.49 1005.36 1005.27 1005.18 1005.27 1005.37 1005.49 1005.99 1006.28 1006.08 1005.82 1005.88 1005.69 1005.27 1004.60 1004.30 1003.88 1003.20 1002.70 1001.97 1001.49 1001.03 1000.74 1000.43 1000.10 1000.28 1000.77 1001.17 1001.41 1001.71 1002.19 1002.72 1003.50 1004.22 1004.96 1005.72 1006.41 1007.09
1006.71 1006.42 1006.07 1005.77 1005.44 1005.23 1005.26 1005.24 1005.31 1005.39 1005.47 1005.50 1005.74 1005.98 1005.97 1005.93 1005.73 1005.61 1005.35 1004.99 1004.91 1004.18 1003.51 1003.28 1002.75 1002.23 1001.66 1001.45 1000.91 1000.63 1000.78 1000.88 1001.10 1001.39 1002.13 1002.28 1002.88 1003.77 1004.27 1005.17 1005.96 1006.53 1007.04
1006.27 1005.97 1005.62 1005.43 1005.24 1005.06 1005.05 1005.03 1004.91 1004.91 1004.97 1005.09 1005.25 1005.56 1005.81 1005.92 1005.80 1005.76 1005.62 1005.02 1004.83 1004.30 1003.82 1003.63 1003.53 1003.15 1002.60 1002.20 1002.18 1001.82 1001.88 1002.12 1002.21 1002.49 1002.92 1003.62 1004.00 1004.66 1005.04 1005.35 1005.82 1006.67 1007.02
1005.94 1005.51 1005.13 1004.87 1004.65 1004.43 1004.35 1004.52 1004.45 1004.55 1004.76 1004.85 1004.98 1005.29 1005.57 1005.89 1005.91 1005.62 1005.13 1004.84 1004.53 1004.53 1004.00 1004.00 1003.91 1003.66 1003.84 1003.64 1003.07 1003.16 1003.09 1003.32 1003.51 1004.06 1003.85 1004.27 1004.85 1004.76 1005.31 1005.44 1006.00 1006.70 1007.16
1005.47 1005.19 1004.79 1004.30 1003.80 1003.72 1003.61 1003.82 1003.99 1004.08 1004.27 1004.39 1004.43 1004.60 1004.69 1004.76 1004.93 1004.98 1004.97 1004.89 1004.75 1004.37 1004.03 1003.93 1004.13 1004.13 1004.01 1004.02 1004.35 1004.43 1003.95 1004.32 1004.81 1004.96 1004.62 1004.89 1005.13 1005.24 1005.44 1005.63 1006.15 1006.66 1007.22
Wind_Speed
19 18 17 14 10 10 6 7 5 3 7 9 10 8 9 9 7 9 7 7 7 7 6 6 7 6 4 4 4 3 3 3 4 3 4 3 2 3 3 4 5 4 4
14 7 8 10 15 12 9 10 13 4 5 9 8 8 8 9 8 8 8 7 8 7 7 6 7 5 6 6 5 6 6 6 5 7 3 3 4 3 3 4 3 3 4
10 16 14 8 8 6 7 15 19 15 10 5 8 9 10 9 8 7 8 9 7 9 8 7 7 6 6 5 6 7 6 5 7 4 4 2 1 2 4 3 3 3 2
8 13 18 18 15 13 12 13 9 18 20 7 8 10 9 9 11 10 10 8 7 8 8 8 8 7 7 8 6 7 6 4 3 3 3 3 2 2 3 2 2 1 2
9 8 6 2 5 7 14 22 25 22 14 8 8 8 7 7 7 10 10 9 8 7 7 7 8 9 11 10 6 6 6 5 4 4 4 3 3 3 5 4 3 2 2
6 7 6 5 2 6 4 6 2 3 6 7 7 7 6 6 11 14 13 10 9 8 7 7 7 10 10 14 15 14 10 7 6 5 4 4 5 5 5 5 4 3 3
4 4 4 4 4 3 4 2 2 6 5 7 7 8 7 7 11 7 14 9 9 9 9 9 7 7 9 7 7 10 11 12 9 7 5 6 5 7 8 6 4 4 3
7 6 4 5 4 5 4 3 3 5 6 5 4 6 7 6 10 9 9 8 8 9 10 9 9 7 7 8 7 7 7 7 7 5 6 6 5 6 10 8 7 5 2
10 10 8 6 2 4 5 3 2 3 3 1 5 5 2 6 10 11 7 5 6 8 6 7 9 9 10 12 8 8 7 6 7 12 10 10 10 10 10 8 6 6 3
8 7 6 6 6 4 5 6 4 2 3 2 3 4 6 5 8 5 6 3 4 4 8 7 12 11 12 13 8 8 8 7 7 4 3 2 4 8 17 11 9 8 4
5 4 5 5 4 5 2 3 3 3 2 5 5 3 7 5 4 9 13 6 6 8 15 6 6 13 14 15 14 10 11 8 9 8 6 5 4 5 7 5 9 9 7
4 4 4 4 3 4 3 2 2 1 2 4 3 3 4 5 9 9 13 16 9 7 6 4 2 8 3 4 6 10 13 10 6 7 7 6 6 6 6 7 9 7 7
6 6 0 3 2 3 2 2 2 3 2 3 2 3 2 4 4 10 6 5 7 6 4 3 1 5 3 4 9 10 5 5 6 7 8 7 8 8 8 6 7 9 6
7 8 7 3 4 2 1 1 2 3 4 3 3 3 3 3 3 5 5 6 7 5 6 6 6 6 7 7 6 6 5 7 8 9 9 8 6 6 8 7 7 7 5
7 6 6 5 3 3 4 3 1 3 3 2 0 1 2 3 1 2 1 2 3 4 7 4 3 3 4 4 4 5 5 6 8 8 8 8 7 8 7 8 6 6 5
5 5 5 4 5 4 4 5 7 6 6 3 5 3 1 1 6 2 7 8 8 5 3 5 7 6 6 6 6 6 6 8 9 10 9 9 8 8 8 7 6 7 8
5 6 5 5 5 4 5 3 2 3 7 6 8 6 4 6 10 10 11 7 9 6 5 7 8 8 8 7 7 7 9 9 10 9 9 9 8 8 9 5 5 3 3
7 10 5 5 4 3 4 3 3 3 1 2 2 5 8 10 8 10 6 4 3 4 4 7 7 7 7 7 7 9 8 7 7 8 7 7 8 9 8 7 8 5 5
6 5 7 5 5 5 5 5 5 3 3 2 2 1 7 10 9 6 4 2 3 6 4 6 7 7 7 8 8 6 6 6 7 7 7 8 8 8 8 8 8 10 9
6 11 9 4 4 5 4 5 3 3 2 1 2 1 0 2 3 5 3 4 4 5 6 5 6 6 6 6 6 5 5 4 7 7 8 9 9 9 9 10 10 11 8
5 6 8 5 4 5 4 5 5 3 2 3 2 0 1 1 4 3 4 4 6 6 6 6 7 5 4 5 5 6 6 5 8 9 10 9 8 10 9 8 8 7 8
4 6 4 3 3 4 4 4 5 4 4 3 1 2 3 2 3 3 4 4 5 6 6 6 5 4 3 3 2 6 7 7 7 8 8 9 9 9 8 8 8 7 7
5 6 5 3 3 3 1 3 3 2 1 3 3 3 4 2 2 3 3 3 3 4 5 6 6 6 6 6 7 7 6 5 7 8 8 8 10 8 9 9 7 8 7
6 6 6 5 4 3 2 2 3 2 1 2 3 2 3 3 2 2 3 2 1 3 4 4 5 7 6 7 8 9 8 8 8 8 10 7 6 7 6 7 8 6 7
5 6 8 5 5 4 3 5 4 4 3 3 4 4 4 3 3 3 3 3 4 1 3 2 3 5 6 7 7 8 9 10 7 4 4 6 4 6 5 5 7 7 6
6 6 6 7 5 5 5 5 5 5 4 4 3 5 5 4 3 3 3 2 3 2 2 2 2 4 6 6 5 4 5 4 2 4 3 5 5 4 5 6 10 8 8
Wind_Direction
184 192 190 173 116 64 28 328 204 190 156 163 158 171 173 179 176 169 186 192 188 202 187 207 210 194 173 174 173 180 200 181 215 281 234 221 140 156 158 141 150 152 151
178 86 59 96 93 85 66 23 293 113 217 160 166 176 177 175 176 172 189 196 183 205 206 204 212 188 188 178 179 194 201 198 210 247 245 215 184 181 164 141 143 151 136
133 112 113 102 121 140 127 76 28 325 283 186 173 183 178 175 177 183 193 205 190 194 208 194 213 203 195 190 186 195 204 205 206 209 228 187 130 121 94 88 96 83 106
125 134 145 165 169 180 176 139 173 243 255 207 198 200 184 172 184 190 205 207 197 197 204 190 197 210 203 195 195 202 193 192 190 220 220 205 141 126 130 139 160 161 169
62 66 72 153 246 188 175 184 193 205 235 235 192 207 188 189 188 190 204 207 201 205 212 208 202 205 217 198 177 201 186 186 185 201 216 166 161 152 181 168 159 145 191
99 128 170 169 209 239 156 154 258 288 214 213 205 197 196 207 212 185 195 203 209 196 215 235 230 213 216 210 193 187 180 178 197 186 194 192 190 178 158 164 148 161 189
36 79 154 167 181 174 134 69 320 269 240 231 216 213 213 211 233 174 209 204 203 201 204 210 216 218 208 210 204 187 185 191 181 182 197 201 186 195 171 158 169 157 189
48 57 140 167 164 175 192 202 267 265 235 212 251 235 217 221 222 234 203 225 213 201 213 204 208 215 211 202 190 191 204 202 206 191 190 202 209 180 179 179 167 157 133
42 35 21 29 127 168 189 175 72 337 250 178 219 235 238 265 239 214 178 207 243 236 219 207 204 215 214 200 186 190 202 219 203 200 197 209 204 178 151 129 153 162 179
31 29 27 15 26 67 145 164 160 118 275 214 263 246 263 252 265 215 185 230 253 298 287 238 223 215 211 205 188 180 202 201 173 144 163 147 162 159 160 169 159 179 159
62 50 26 26 23 19 44 53 116 133 242 269 238 266 299 310 281 213 210 197 205 231 251 238 233 221 220 207 201 191 204 175 184 176 177 175 179 171 180 166 172 174 185
31 87 64 18 19 358 18 24 337 165 207 233 229 243 268 263 246 213 201 214 222 226 238 238 146 32 238 253 237 228 187 172 166 181 182 185 183 195 191 180 183 190 198
11 6 232 149 349 313 336 42 4 351 42 42 43 344 340 16 47 38 80 246 263 257 280 289 185 249 216 210 218 230 256 205 182 182 198 196 190 189 183 183 187 194 187
0 345 330 337 172 230 319 308 111 47 38 52 37 14 356 360 62 21 16 0 22 17 319 315 288 242 229 237 226 194 218 224 215 202 203 201 188 166 183 176 190 181 194
349 350 350 356 330 276 259 239 264 226 184 164 55 36 31 339 2 219 52 356 326 335 335 289 280 254 242 216 225 221 213 215 220 221 196 195 193 181 180 178 175 169 180
336 329 314 318 313 303 285 272 252 247 163 129 135 161 63 343 314 260 216 227 224 222 232 250 243 238 242 242 217 212 212 219 223 213 212 200 187 184 185 184 177 181 186
311 310 301 296 306 321 335 6 157 302 249 235 182 162 193 265 296 300 301 293 224 182 224 247 246 233 228 232 236 223 229 223 219 215 209 200 178 181 170 168 175 166 167
324 300 293 275 255 304 302 284 259 217 217 302 232 172 222 246 269 276 275 294 292 204 249 249 243 243 238 233 240 240 235 218 203 204 194 183 172 172 171 178 172 166 148
306 306 300 288 295 280 264 268 257 221 179 209 116 239 238 249 260 287 177 241 266 280 219 224 232 241 248 240 234 223 212 210 206 188 180 184 166 157 153 145 145 142 136
323 313 303 319 317 312 333 294 239 132 88 19 67 138 308 27 357 339 327 335 316 318 306 287 262 237 238 242 236 215 204 202 199 177 175 157 145 138 140 142 146 144 151
315 314 320 342 2 357 1 15 25 43 66 120 126 248 224 65 322 332 337 345 336 336 335 303 273 245 248 249 217 194 195 203 199 177 158 150 136 135 134 134 131 137 138
286 283 310 323 353 346 340 31 32 26 20 105 231 258 257 59 346 330 335 342 336 330 335 338 354 9 8 352 258 192 169 162 157 147 137 134 128 123 128 132 134 135 136
287 293 285 282 270 266 136 131 96 48 353 121 75 21 7 348 357 335 317 320 325 336 356 3 15 29 27 25 46 51 56 95 115 107 108 121 118 128 137 134 140 139 137
270 273 265 256 236 267 273 144 147 153 230 121 97 93 349 319 305 298 292 319 298 360 12 36 31 24 13 49 34 45 56 50 33 87 99 104 106 116 129 140 143 139 130
295 301 306 220 219 242 238 199 183 188 218 189 190 177 180 204 273 271 284 313 304 181 94 35 12 60 51 23 67 63 59 54 67 38 70 100 130 158 179 151 145 140 135
286 291 296 270 228 236 253 193 191 193 203 217 174 180 192 173 211 229 255 280 297 5 78 120 117 75 90 86 56 57 100 123 173 268 180 153 161 170 151 138 138 139 140